Home > Weather > Kalamata > Past weeks

Flag for Greece Past Weather in Kalamata, Greece — Yesterday and Last 2 Weeks

Now
63 °F

Clear.


Feels Like: 63 °F
Forecast: 57 / 88 °F
Wind: No wind

Location: Kalamata Airport

Current Time: May 29, 2016 at 5:07:20 AM

Latest Report: May 29, 2016 at 3:50 AM


Visibility: 10 mi

Pressure: 29.95 "Hg

Humidity: 88%

Dew Point: 59 °F

Location of KalamataLocation

Past Weather in Kalamata — Graph

°F

Kalamata Temperature Yesterday

Maximum temperature yesterday: 79 °F (at 12:20 PM)
Minimum temperature yesterday: 55 °F (at 4:50 AM)
Average temperature yesterday: 70 °F

High & Low Weather Summary for the Past Weeks

 TemperatureHumidityPressure
High82 °F (May 27, 10:20 AM)94% (May 16, 5:50 AM)30.07 "Hg (May 16, 5:50 AM)
Low50 °F (May 17, 6:50 AM)28% (May 15, 11:50 AM)29.65 "Hg (May 21, 4:50 AM)
Average67 °F62%29.93 "Hg
* Reported May 14 3:50 AM — May 29 3:50 AM, Kalamata, Weather by CustomWeather, © 2016

Note: Actual official high and low records may vary slightly from our data, if they occured in-between our weather recording intervals... More about our weather records

Advertising

Kalamata Weather History for the Previous 24 Hours

Scroll right to see more
 ConditionsComfort  
Time TempWeatherWind HumidityBarometerVisibility
3:50 AM
Sun, May 29
63 °FClear.No wind88%29.95 "Hg10 mi
2:50 AM63 °FClear.No wind88%29.98 "Hg10 mi
1:50 AM63 °FClear.No wind94%29.98 "Hg10 mi
12:50 AM63 °FClear.No wind88%30.01 "Hg10 mi
11:50 PM
Sat, May 28
64 °FClear.No wind88%30.01 "Hg10 mi
10:50 PM66 °FClear.No wind88%30.01 "Hg10 mi
9:50 PM66 °FClear.No wind88%30.01 "Hg10 mi
8:50 PM70 °FSunny.No wind78%29.98 "Hg10 mi
7:50 PM73 °FPassing clouds.No wind61%29.98 "HgN/A
7:20 PM73 °FPassing clouds.5 mph65%29.98 "HgN/A
6:50 PM73 °FPassing clouds.6 mph65%29.98 "HgN/A
6:20 PM77 °FPassing clouds.5 mph54%29.98 "HgN/A
5:50 PM77 °FPassing clouds.6 mph54%29.98 "HgN/A
5:20 PM77 °FPassing clouds.8 mph51%29.98 "HgN/A
4:50 PM77 °FPassing clouds.7 mph47%29.98 "HgN/A
4:20 PM79 °FPassing clouds.10 mph48%29.98 "HgN/A
3:50 PM79 °FPassing clouds.10 mph48%29.98 "HgN/A
3:20 PM79 °FPassing clouds.10 mph45%29.98 "HgN/A
2:50 PM79 °FPassing clouds.9 mph45%29.98 "HgN/A
2:20 PM79 °FPassing clouds.9 mph45%30.01 "HgN/A
1:50 PM79 °FPassing clouds.9 mph48%30.01 "HgN/A
1:20 PM77 °FPassing clouds.9 mph54%30.01 "HgN/A
12:50 PM77 °FPassing clouds.10 mph54%30.01 "HgN/A
12:20 PM79 °FPassing clouds.9 mph48%30.01 "HgN/A
11:50 AM77 °FPassing clouds.8 mph51%30.01 "HgN/A
11:20 AM77 °FPassing clouds.8 mph51%30.01 "HgN/A
10:50 AM77 °FSunny.7 mph47%30.01 "Hg10 mi
10:20 AM77 °FSunny.5 mph47%30.01 "Hg10 mi
9:50 AM77 °FSunny.No wind44%30.01 "Hg10 mi
9:20 AM73 °FSunny.No wind53%30.01 "Hg10 mi
8:50 AM70 °FSunny.No wind64%30.01 "Hg10 mi
8:20 AM66 °FSunny.No wind78%30.01 "Hg10 mi
7:50 AM63 °FSunny.No wind83%30.01 "Hg10 mi
7:20 AM57 °FSunny.No wind94%30.01 "Hg10 mi
6:50 AM55 °FClear.No wind94%29.98 "Hg10 mi
6:20 AM55 °FClear.No wind88%29.98 "Hg10 mi
5:50 AM55 °FClear.No wind88%29.98 "Hg10 mi
Weather by CustomWeather, © 2016

See weather overviewHow to use our weather pages